Time,TemperatureF,DewpointF,PressureIn,WindDirection,WindDirectionDegrees,WindSpeedMPH,WindSpeedGustMPH,Humidity,HourlyPrecipIn,Conditions,Clouds,dailyrainin,SoftwareType,DateUTC
2013-07-08 00:01:00,72.7,67.6,30.23,ENE,68,0.0,0.0,84,0.00,,,0.00,WUHU216HW,2013-07-08 04:01:00,
2013-07-08 00:02:00,72.7,67.6,30.23,ENE,68,0.0,0.0,84,0.00,,,0.00,WUHU216HW,2013-07-08 04:02:00,
2013-07-08 00:07:00,72.7,67.6,30.23,ENE,68,0.0,0.0,84,0.00,,,0.00,WUHU216HW,2013-07-08 04:07:00,
2013-07-08 00:12:00,72.7,68.0,30.23,East,90,0.0,0.0,85,0.00,,,0.00,WUHU216HW,2013-07-08 04:12:00,
2013-07-08 00:17:00,72.7,68.0,30.23,SSE,158,0.7,0.7,85,0.00,,,0.00,WUHU216HW,2013-07-08 04:17:00,
2013-07-08 00:22:00,72.7,68.0,30.23,SSE,158,0.0,0.7,85,0.00,,,0.00,WUHU216HW,2013-07-08 04:22:00,
2013-07-08 00:27:00,72.5,67.8,30.23,ESE,113,0.0,0.7,85,0.00,,,0.00,WUHU216HW,2013-07-08 04:27:00,
2013-07-08 00:32:00,72.5,68.1,30.23,NE,45,0.0,0.0,86,0.00,,,0.00,WUHU216HW,2013-07-08 04:32:00,
2013-07-08 00:37:00,72.4,68.0,30.23,NE,45,0.0,0.0,86,0.00,,,0.00,WUHU216HW,2013-07-08 04:37:00,
2013-07-08 00:42:00,72.4,68.0,30.23,SE,135,0.0,0.0,86,0.00,,,0.00,WUHU216HW,2013-07-08 04:42:00,
2013-07-08 00:47:00,72.4,68.0,30.23,SSE,158,0.4,0.4,86,0.00,,,0.00,WUHU216HW,2013-07-08 04:47:00,
2013-07-08 00:52:00,72.4,68.0,30.23,SSE,158,0.0,0.4,86,0.00,,,0.00,WUHU216HW,2013-07-08 04:52:00,
2013-07-08 00:57:00,72.4,68.0,30.22,SSE,158,0.4,0.4,86,0.00,,,0.00,WUHU216HW,2013-07-08 04:57:00,
2013-07-08 01:02:00,72.4,68.0,30.22,South,180,0.4,0.9,86,0.00,,,0.00,WUHU216HW,2013-07-08 05:02:00,
2013-07-08 01:07:00,72.2,68.1,30.22,SSW,203,0.2,0.9,87,0.00,,,0.00,WUHU216HW,2013-07-08 05:07:00,
2013-07-08 01:12:00,72.2,68.1,30.22,SSW,203,0.0,0.4,87,0.00,,,0.00,WUHU216HW,2013-07-08 05:12:00,
2013-07-08 01:17:00,72.0,68.0,30.23,SW,225,0.0,0.0,87,0.00,,,0.00,WUHU216HW,2013-07-08 05:17:00,
2013-07-08 01:22:00,72.0,68.0,30.23,SW,225,0.0,0.0,87,0.00,,,0.00,WUHU216HW,2013-07-08 05:22:00,
2013-07-08 01:27:00,72.0,68.0,30.23,South,180,1.3,1.3,87,0.00,,,0.00,WUHU216HW,2013-07-08 05:27:00,
2013-07-08 01:32:00,72.0,68.0,30.23,South,180,0.4,1.3,87,0.00,,,0.00,WUHU216HW,2013-07-08 05:32:00,
2013-07-08 01:37:00,72.0,68.2,30.23,SSE,158,2.0,2.0,88,0.00,,,0.00,WUHU216HW,2013-07-08 05:37:00,
2013-07-08 01:43:00,72.0,68.2,30.23,SSE,158,1.1,2.0,88,0.00,,,0.00,WUHU216HW,2013-07-08 05:43:00,
2013-07-08 01:47:00,72.0,68.2,30.23,South,180,1.5,2.0,88,0.00,,,0.00,WUHU216HW,2013-07-08 05:47:00,
2013-07-08 01:53:00,72.0,68.2,30.23,South,180,1.3,1.6,88,0.00,,,0.00,WUHU216HW,2013-07-08 05:53:00,
2013-07-08 01:58:00,72.0,68.2,30.24,South,188,1.4,2.0,88,0.00,,,0.00,WUHU216HW,2013-07-08 05:58:00,
2013-07-08 02:02:00,72.0,68.2,30.23,South,180,1.6,2.0,88,0.00,,,0.00,WUHU216HW,2013-07-08 06:02:00,
2013-07-08 02:07:00,72.0,68.2,30.24,South,185,2.0,2.5,88,0.00,,,0.00,WUHU216HW,2013-07-08 06:07:00,
2013-07-08 02:12:00,72.0,68.2,30.24,South,184,1.2,2.5,88,0.00,,,0.00,WUHU216HW,2013-07-08 06:12:00,
2013-07-08 02:18:00,72.0,68.2,30.24,SSW,203,2.0,2.5,88,0.00,,,0.00,WUHU216HW,2013-07-08 06:18:00,
2013-07-08 02:23:00,72.0,68.2,30.24,SSE,158,2.2,2.5,88,0.00,,,0.00,WUHU216HW,2013-07-08 06:23:00,
2013-07-08 02:28:00,72.0,68.2,30.24,South,185,1.7,2.2,88,0.00,,,0.00,WUHU216HW,2013-07-08 06:28:00,
2013-07-08 02:33:00,72.0,68.2,30.24,SSW,203,2.5,2.5,88,0.00,,,0.00,WUHU216HW,2013-07-08 06:33:00,
2013-07-08 02:38:00,72.0,68.2,30.23,SW,225,1.7,2.5,88,0.01,,,0.01,WUHU216HW,2013-07-08 06:38:00,
2013-07-08 02:43:00,72.0,68.2,30.23,SSW,203,2.0,2.5,88,0.01,,,0.01,WUHU216HW,2013-07-08 06:43:00,
2013-07-08 02:48:00,72.0,68.2,30.23,SW,225,2.7,2.7,88,0.01,,,0.01,WUHU216HW,2013-07-08 06:48:00,
2013-07-08 02:53:00,72.0,68.2,30.22,South,182,3.2,3.4,88,0.01,,,0.01,WUHU216HW,2013-07-08 06:53:00,
2013-07-08 02:58:00,72.0,68.6,30.22,WSW,248,2.5,3.4,89,0.01,,,0.01,WUHU216HW,2013-07-08 06:58:00,
2013-07-08 03:03:00,72.0,68.6,30.22,SW,225,1.1,2.5,89,0.01,,,0.01,WUHU216HW,2013-07-08 07:03:00,
2013-07-08 03:08:00,72.0,68.6,30.22,WSW,248,3.4,3.4,89,0.01,,,0.01,WUHU216HW,2013-07-08 07:08:00,
2013-07-08 03:13:00,71.8,68.4,30.22,West,270,2.9,4.0,89,0.01,,,0.01,WUHU216HW,2013-07-08 07:13:00,
2013-07-08 03:18:00,72.0,68.6,30.23,WSW,248,1.3,4.0,89,0.01,,,0.01,WUHU216HW,2013-07-08 07:18:00,
2013-07-08 03:23:00,71.8,68.4,30.23,SW,225,0.4,2.9,89,0.01,,,0.01,WUHU216HW,2013-07-08 07:23:00,
2013-07-08 03:28:00,71.8,68.4,30.23,WSW,248,2.5,2.5,89,0.01,,,0.01,WUHU216HW,2013-07-08 07:28:00,
2013-07-08 03:33:00,71.8,68.4,30.23,SSW,203,1.8,2.5,89,0.01,,,0.01,WUHU216HW,2013-07-08 07:33:00,
2013-07-08 03:38:00,71.8,68.4,30.22,SW,225,3.1,3.1,89,0.00,,,0.01,WUHU216HW,2013-07-08 07:38:00,
2013-07-08 03:43:00,71.8,68.4,30.22,SW,225,2.5,3.1,89,0.00,,,0.01,WUHU216HW,2013-07-08 07:43:00,
2013-07-08 03:48:00,71.8,68.8,30.22,SW,225,2.2,3.1,90,0.00,,,0.01,WUHU216HW,2013-07-08 07:48:00,
2013-07-08 03:53:00,71.8,68.8,30.22,SSW,199,1.9,2.5,90,0.00,,,0.01,WUHU216HW,2013-07-08 07:53:00,
2013-07-08 03:58:00,71.8,68.8,30.22,SW,225,2.5,2.5,90,0.00,,,0.01,WUHU216HW,2013-07-08 07:58:00,
2013-07-08 04:03:00,71.8,68.4,30.21,SW,225,1.3,2.5,89,0.00,,,0.01,WUHU216HW,2013-07-08 08:03:00,
2013-07-08 04:08:00,71.8,68.8,30.21,SW,226,1.0,2.5,90,0.00,,,0.01,WUHU216HW,2013-07-08 08:08:00,
2013-07-08 04:13:00,71.8,68.8,30.21,WSW,248,0.4,1.3,90,0.00,,,0.01,WUHU216HW,2013-07-08 08:13:00,
2013-07-08 04:18:00,71.8,68.8,30.21,WSW,248,0.4,0.4,90,0.00,,,0.01,WUHU216HW,2013-07-08 08:18:00,
2013-07-08 04:23:00,71.8,68.8,30.21,SW,225,1.3,1.3,90,0.00,,,0.01,WUHU216HW,2013-07-08 08:23:00,
2013-07-08 04:28:00,71.8,68.8,30.21,South,180,0.9,1.3,90,0.00,,,0.01,WUHU216HW,2013-07-08 08:28:00,
2013-07-08 04:33:00,71.8,68.8,30.21,SW,225,0.0,1.3,90,0.00,,,0.01,WUHU216HW,2013-07-08 08:33:00,
2013-07-08 04:38:00,71.8,68.8,30.21,NE,45,0.0,0.9,90,0.00,,,0.01,WUHU216HW,2013-07-08 08:38:00,
2013-07-08 04:43:00,71.6,68.6,30.20,NE,45,0.0,0.0,90,0.00,,,0.01,WUHU216HW,2013-07-08 08:43:00,
2013-07-08 04:48:00,71.8,68.8,30.20,NE,45,0.0,0.0,90,0.00,,,0.01,WUHU216HW,2013-07-08 08:48:00,
2013-07-08 04:53:00,71.6,68.6,30.20,NE,45,0.0,0.0,90,0.00,,,0.01,WUHU216HW,2013-07-08 08:53:00,
2013-07-08 04:58:00,71.6,68.6,30.20,South,180,0.0,0.0,90,0.00,,,0.01,WUHU216HW,2013-07-08 08:58:00,
2013-07-08 05:03:00,71.6,68.6,30.20,South,180,0.0,0.0,90,0.00,,,0.01,WUHU216HW,2013-07-08 09:03:00,
2013-07-08 05:08:00,71.6,68.6,30.20,NNW,338,0.0,0.0,90,0.00,,,0.01,WUHU216HW,2013-07-08 09:08:00,
2013-07-08 05:13:00,71.6,68.6,30.20,NNW,338,0.0,0.0,90,0.00,,,0.01,WUHU216HW,2013-07-08 09:13:00,
2013-07-08 05:18:00,71.6,68.6,30.20,SSE,158,0.0,0.0,90,0.00,,,0.01,WUHU216HW,2013-07-08 09:18:00,
2013-07-08 05:23:00,71.6,68.6,30.20,South,180,0.0,0.0,90,0.00,,,0.01,WUHU216HW,2013-07-08 09:23:00,
2013-07-08 05:28:00,71.6,68.6,30.21,WSW,248,0.0,0.0,90,0.00,,,0.01,WUHU216HW,2013-07-08 09:28:00,
2013-07-08 05:33:00,71.6,68.6,30.21,SSW,203,0.0,0.0,90,0.00,,,0.01,WUHU216HW,2013-07-08 09:33:00,
2013-07-08 05:38:00,71.6,68.6,30.22,South,180,0.0,0.0,90,0.00,,,0.01,WUHU216HW,2013-07-08 09:38:00,
2013-07-08 05:43:00,71.6,68.6,30.22,South,180,0.0,0.0,90,0.00,,,0.01,WUHU216HW,2013-07-08 09:43:00,
2013-07-08 05:48:00,71.6,68.6,30.22,South,180,0.0,0.0,90,0.00,,,0.01,WUHU216HW,2013-07-08 09:48:00,
2013-07-08 05:53:00,71.6,68.6,30.22,South,180,0.0,0.0,90,0.00,,,0.01,WUHU216HW,2013-07-08 09:53:00,
2013-07-08 05:58:00,71.6,68.6,30.22,SSE,158,0.0,0.0,90,0.00,,,0.01,WUHU216HW,2013-07-08 09:58:00,
2013-07-08 06:03:00,71.5,68.7,30.23,South,180,0.0,0.0,91,0.00,,,0.01,WUHU216HW,2013-07-08 10:03:00,
2013-07-08 06:08:00,71.5,68.4,30.23,South,180,0.0,0.0,90,0.00,,,0.01,WUHU216HW,2013-07-08 10:08:00,
2013-07-08 06:13:00,71.5,68.7,30.23,South,180,0.0,0.0,91,0.00,,,0.01,WUHU216HW,2013-07-08 10:13:00,
2013-07-08 06:18:00,71.5,68.7,30.23,SSE,158,0.0,0.0,91,0.00,,,0.01,WUHU216HW,2013-07-08 10:18:00,
2013-07-08 06:24:00,71.3,68.5,30.23,South,180,0.0,0.0,91,0.00,,,0.01,WUHU216HW,2013-07-08 10:24:00,
2013-07-08 06:29:00,71.3,68.5,30.23,SSE,158,0.0,0.0,91,0.00,,,0.01,WUHU216HW,2013-07-08 10:29:00,
2013-07-08 06:34:00,71.3,68.5,30.23,SSW,203,0.0,0.0,91,0.00,,,0.01,WUHU216HW,2013-07-08 10:34:00,
2013-07-08 06:39:00,71.3,68.5,30.23,SSE,158,0.0,0.0,91,0.00,,,0.01,WUHU216HW,2013-07-08 10:39:00,
2013-07-08 06:44:00,71.3,68.5,30.23,SSE,158,0.0,0.0,91,0.00,,,0.01,WUHU216HW,2013-07-08 10:44:00,
2013-07-08 06:49:00,71.5,68.7,30.24,SSE,158,0.0,0.0,91,0.00,,,0.01,WUHU216HW,2013-07-08 10:49:00,
2013-07-08 06:54:00,71.5,68.7,30.24,South,180,0.0,0.0,91,0.00,,,0.01,WUHU216HW,2013-07-08 10:54:00,
2013-07-08 06:59:00,71.6,68.9,30.24,SW,225,0.0,0.0,91,0.00,,,0.01,WUHU216HW,2013-07-08 10:59:00,
2013-07-08 07:04:00,71.8,69.0,30.24,SSE,158,0.0,0.0,91,0.00,,,0.01,WUHU216HW,2013-07-08 11:04:00,
2013-07-08 07:09:00,72.0,69.2,30.24,SSW,203,0.0,0.0,91,0.00,,,0.01,WUHU216HW,2013-07-08 11:09:00,
2013-07-08 07:14:00,72.0,69.2,30.24,South,180,0.0,0.0,91,0.00,,,0.01,WUHU216HW,2013-07-08 11:14:00,
2013-07-08 07:19:00,72.2,69.4,30.24,South,180,0.0,0.0,91,0.00,,,0.01,WUHU216HW,2013-07-08 11:19:00,
2013-07-08 07:24:00,72.4,69.6,30.24,South,180,0.0,0.0,91,0.00,,,0.01,WUHU216HW,2013-07-08 11:24:00,
2013-07-08 07:29:00,72.5,69.8,30.24,South,180,0.0,0.0,91,0.00,,,0.01,WUHU216HW,2013-07-08 11:29:00,
2013-07-08 07:34:00,72.5,69.8,30.24,SW,225,0.0,0.0,91,0.00,,,0.01,WUHU216HW,2013-07-08 11:34:00,
2013-07-08 07:39:00,72.7,69.9,30.24,South,180,0.0,0.0,91,0.00,,,0.01,WUHU216HW,2013-07-08 11:39:00,
2013-07-08 07:44:00,73.1,70.0,30.24,South,180,0.0,0.0,90,0.00,,,0.01,WUHU216HW,2013-07-08 11:44:00,
2013-07-08 07:49:00,73.6,70.8,30.24,South,180,0.0,0.0,91,0.00,,,0.01,WUHU216HW,2013-07-08 11:49:00,
2013-07-08 07:54:00,73.6,70.8,30.24,South,180,0.0,0.0,91,0.00,,,0.01,WUHU216HW,2013-07-08 11:54:00,
2013-07-08 07:59:00,73.8,71.0,30.24,SW,225,0.0,0.0,91,0.00,,,0.01,WUHU216HW,2013-07-08 11:59:00,
2013-07-08 08:04:00,74.5,71.5,30.25,WSW,248,0.0,0.0,90,0.00,,,0.01,WUHU216HW,2013-07-08 12:04:00,
2013-07-08 08:09:00,74.9,71.8,30.24,SSE,158,0.0,0.0,90,0.00,,,0.01,WUHU216HW,2013-07-08 12:09:00,
2013-07-08 08:14:00,76.0,72.5,30.25,SSE,158,0.4,0.4,89,0.00,,,0.01,WUHU216HW,2013-07-08 12:14:00,
2013-07-08 08:19:00,77.6,74.2,30.24,SE,135,3.1,3.1,89,0.00,,,0.01,WUHU216HW,2013-07-08 12:19:00,
2013-07-08 08:24:00,81.4,76.1,30.25,SSE,163,5.1,5.4,84,0.00,,,0.01,WUHU216HW,2013-07-08 12:24:00,
2013-07-08 08:29:00,82.6,77.0,30.25,South,180,4.0,5.4,83,0.00,,,0.01,WUHU216HW,2013-07-08 12:29:00,
2013-07-08 08:34:00,84.1,77.9,30.25,SSE,158,2.5,4.0,82,0.00,,,0.01,WUHU216HW,2013-07-08 12:34:00,
2013-07-08 08:39:00,85.7,78.8,30.25,SSW,203,2.5,4.0,80,0.00,,,0.01,WUHU216HW,2013-07-08 12:39:00,
2013-07-08 08:44:00,87.8,78.5,30.25,SSE,168,3.8,4.0,74,0.00,,,0.01,WUHU216HW,2013-07-08 12:44:00,
2013-07-08 08:49:00,88.0,78.7,30.25,South,180,5.4,5.4,74,0.00,,,0.01,WUHU216HW,2013-07-08 12:49:00,
2013-07-08 08:54:00,88.0,78.3,30.25,SSE,158,3.1,5.4,73,0.00,,,0.01,WUHU216HW,2013-07-08 12:54:00,
2013-07-08 09:00:00,88.2,78.0,30.26,SW,225,2.5,5.4,72,0.00,,,0.01,WUHU216HW,2013-07-08 13:00:00,
2013-07-08 09:05:00,86.2,75.8,30.26,SW,230,2.7,3.1,71,0.00,,,0.01,WUHU216HW,2013-07-08 13:05:00,
2013-07-08 09:10:00,85.9,76.2,30.26,SSE,158,4.0,4.0,73,0.00,,,0.01,WUHU216HW,2013-07-08 13:10:00,
2013-07-08 09:15:00,85.9,75.9,30.26,SW,218,3.6,4.0,72,0.00,,,0.01,WUHU216HW,2013-07-08 13:15:00,
2013-07-08 09:20:00,85.3,75.7,30.26,South,180,1.6,4.0,73,0.00,,,0.01,WUHU216HW,2013-07-08 13:20:00,
2013-07-08 09:24:00,84.8,75.2,30.26,SSW,203,3.1,3.4,73,0.00,,,0.01,WUHU216HW,2013-07-08 13:24:00,
2013-07-08 09:30:00,83.3,74.2,30.26,South,180,2.4,3.1,74,0.00,,,0.01,WUHU216HW,2013-07-08 13:30:00,
2013-07-08 09:35:00,82.8,74.1,30.26,SSE,158,4.3,4.3,75,0.00,,,0.01,WUHU216HW,2013-07-08 13:35:00,
2013-07-08 09:40:00,82.6,73.9,30.26,SW,225,4.0,4.3,75,0.00,,,0.01,WUHU216HW,2013-07-08 13:40:00,
2013-07-08 09:45:00,83.0,74.6,30.26,South,180,2.9,4.3,76,0.00,,,0.01,WUHU216HW,2013-07-08 13:45:00,
2013-07-08 09:50:00,83.9,75.1,30.26,SW,223,3.4,4.0,75,0.00,,,0.01,WUHU216HW,2013-07-08 13:50:00,
2013-07-08 09:55:00,84.2,75.1,30.26,SSW,203,2.2,3.6,74,0.00,,,0.01,WUHU216HW,2013-07-08 13:55:00,
2013-07-08 10:00:00,84.6,75.4,30.26,West,265,3.1,5.1,74,0.00,,,0.01,WUHU216HW,2013-07-08 14:00:00,
2013-07-08 10:05:00,84.1,74.4,30.26,WSW,248,1.8,5.1,73,0.00,,,0.01,WUHU216HW,2013-07-08 14:05:00,
2013-07-08 10:10:00,83.9,74.3,30.27,WSW,248,1.1,2.9,73,0.00,,,0.01,WUHU216HW,2013-07-08 14:10:00,
2013-07-08 10:15:00,83.9,74.3,30.27,WSW,248,2.5,2.5,73,0.00,,,0.01,WUHU216HW,2013-07-08 14:15:00,
2013-07-08 10:20:00,83.5,74.4,30.27,WSW,248,1.8,2.5,74,0.00,,,0.01,WUHU216HW,2013-07-08 14:20:00,
2013-07-08 10:25:00,83.3,74.2,30.27,SW,225,1.6,2.5,74,0.00,,,0.01,WUHU216HW,2013-07-08 14:25:00,
2013-07-08 10:30:00,84.4,75.6,30.27,South,180,3.8,3.8,75,0.00,,,0.01,WUHU216HW,2013-07-08 14:30:00,
2013-07-08 10:35:00,84.8,75.2,30.27,SSW,203,4.7,4.7,73,0.00,,,0.01,WUHU216HW,2013-07-08 14:35:00,
2013-07-08 10:40:00,84.6,74.6,30.27,SSW,203,3.4,4.7,72,0.00,,,0.01,WUHU216HW,2013-07-08 14:40:00,
2013-07-08 10:45:00,84.2,74.3,30.27,SW,225,2.9,4.7,72,0.00,,,0.01,WUHU216HW,2013-07-08 14:45:00,
2013-07-08 10:50:00,83.7,74.1,30.27,West,264,5.1,5.1,73,0.00,,,0.01,WUHU216HW,2013-07-08 14:50:00,
2013-07-08 10:55:00,83.7,74.1,30.27,SSW,205,3.5,5.1,73,0.00,,,0.01,WUHU216HW,2013-07-08 14:55:00,
2013-07-08 11:00:00,84.1,74.9,30.27,SW,225,0.7,4.7,74,0.00,,,0.01,WUHU216HW,2013-07-08 15:00:00,
2013-07-08 11:05:00,84.2,74.3,30.28,NNW,338,0.4,2.9,72,0.00,,,0.01,WUHU216HW,2013-07-08 15:05:00,
2013-07-08 11:10:00,84.4,74.8,30.28,South,180,2.7,2.7,73,0.00,,,0.01,WUHU216HW,2013-07-08 15:10:00,
2013-07-08 11:15:00,84.8,75.2,30.28,SSW,197,3.0,3.4,73,0.00,,,0.01,WUHU216HW,2013-07-08 15:15:00,
2013-07-08 11:20:00,85.1,75.2,30.28,SW,225,2.5,3.4,72,0.00,,,0.01,WUHU216HW,2013-07-08 15:20:00,
2013-07-08 11:25:00,85.7,75.7,30.28,WSW,248,3.1,3.1,72,0.00,,,0.01,WUHU216HW,2013-07-08 15:25:00,
2013-07-08 11:30:00,86.6,75.7,30.28,WSW,246,3.3,3.4,70,0.00,,,0.01,WUHU216HW,2013-07-08 15:30:00,
2013-07-08 11:35:00,86.8,75.4,30.28,WSW,248,1.8,3.4,69,0.00,,,0.01,WUHU216HW,2013-07-08 15:35:00,
2013-07-08 11:40:00,87.1,76.2,30.28,SW,225,4.5,4.5,70,0.00,,,0.01,WUHU216HW,2013-07-08 15:40:00,
2013-07-08 11:45:00,87.7,76.2,30.28,SSW,203,1.6,4.5,69,0.00,,,0.01,WUHU216HW,2013-07-08 15:45:00,
2013-07-08 11:50:00,88.0,76.6,30.27,SSE,158,7.2,7.2,69,0.00,,,0.01,WUHU216HW,2013-07-08 15:50:00,
2013-07-08 11:55:00,88.9,76.6,30.27,SSE,158,5.1,7.2,67,0.00,,,0.01,WUHU216HW,2013-07-08 15:55:00,
2013-07-08 12:00:00,89.5,76.6,30.27,SSW,213,4.6,5.1,66,0.00,,,0.01,WUHU216HW,2013-07-08 16:00:00,
2013-07-08 12:05:00,88.9,75.6,30.27,SW,225,4.9,7.2,65,0.00,,,0.01,WUHU216HW,2013-07-08 16:05:00,
2013-07-08 12:11:00,87.8,75.1,30.27,SW,225,3.4,7.2,66,0.00,,,0.01,WUHU216HW,2013-07-08 16:11:00,
2013-07-08 12:16:00,86.9,74.3,30.26,SW,225,3.4,4.9,66,0.00,,,0.01,WUHU216HW,2013-07-08 16:16:00,
2013-07-08 12:21:00,86.8,75.0,30.27,WSW,248,4.0,4.0,68,0.00,,,0.01,WUHU216HW,2013-07-08 16:21:00,
2013-07-08 12:26:00,87.5,76.1,30.27,SW,218,2.4,4.0,69,0.00,,,0.01,WUHU216HW,2013-07-08 16:26:00,
2013-07-08 12:31:00,88.7,77.3,30.26,WSW,248,2.0,4.0,69,0.00,,,0.01,WUHU216HW,2013-07-08 16:31:00,
2013-07-08 12:36:00,88.7,76.4,30.26,South,180,1.6,2.0,67,0.00,,,0.01,WUHU216HW,2013-07-08 16:36:00,
2013-07-08 12:41:00,89.5,77.0,30.26,SW,224,3.5,3.8,67,0.00,,,0.01,WUHU216HW,2013-07-08 16:41:00,
2013-07-08 12:46:00,90.0,76.7,30.26,SW,225,2.5,3.8,65,0.00,,,0.01,WUHU216HW,2013-07-08 16:46:00,
2013-07-08 12:51:00,90.7,76.9,30.26,SSE,158,3.8,3.8,64,0.00,,,0.01,WUHU216HW,2013-07-08 16:51:00,
2013-07-08 12:56:00,90.4,76.1,30.26,NNE,23,0.7,3.8,63,0.00,,,0.01,WUHU216HW,2013-07-08 16:56:00,
2013-07-08 13:01:00,89.8,76.1,30.26,SSW,203,3.4,3.8,64,0.00,,,0.01,WUHU216HW,2013-07-08 17:01:00,
2013-07-08 13:06:00,90.7,77.3,30.26,SSE,150,4.3,4.9,65,0.00,,,0.01,WUHU216HW,2013-07-08 17:06:00,
2013-07-08 13:11:00,91.4,77.5,30.26,South,180,4.7,4.9,64,0.00,,,0.01,WUHU216HW,2013-07-08 17:11:00,
2013-07-08 13:16:00,92.2,78.2,30.26,South,180,5.8,5.8,64,0.00,,,0.01,WUHU216HW,2013-07-08 17:16:00,
2013-07-08 13:21:00,92.2,77.8,30.26,SSW,203,2.5,5.8,63,0.00,,,0.01,WUHU216HW,2013-07-08 17:21:00,
2013-07-08 13:26:00,91.8,76.9,30.25,WSW,248,4.7,5.8,62,0.00,,,0.01,WUHU216HW,2013-07-08 17:26:00,
2013-07-08 13:31:00,91.1,76.2,30.25,WNW,293,1.8,4.7,62,0.00,,,0.01,WUHU216HW,2013-07-08 17:31:00,
2013-07-08 13:36:00,90.0,74.8,30.25,South,180,4.0,4.7,61,0.00,,,0.01,WUHU216HW,2013-07-08 17:36:00,
2013-07-08 13:42:00,89.6,75.4,30.25,SW,225,1.8,4.0,63,0.00,,,0.01,WUHU216HW,2013-07-08 17:42:00,
2013-07-08 13:47:00,89.3,75.1,30.25,SW,225,3.4,4.0,63,0.00,,,0.01,WUHU216HW,2013-07-08 17:47:00,
2013-07-08 13:52:00,88.9,74.7,30.25,WSW,248,1.1,3.4,63,0.00,,,0.01,WUHU216HW,2013-07-08 17:52:00,
2013-07-08 13:57:00,89.1,75.8,30.25,SSE,158,1.1,3.4,65,0.00,,,0.01,WUHU216HW,2013-07-08 17:57:00,
2013-07-08 14:03:00,90.4,77.0,30.25,SSE,158,3.1,4.7,65,0.00,,,0.01,WUHU216HW,2013-07-08 18:03:00,
2013-07-08 14:08:00,92.5,77.6,30.25,SW,230,0.9,4.7,62,0.00,,,0.01,WUHU216HW,2013-07-08 18:08:00,
2013-07-08 14:13:00,93.2,78.3,30.25,South,180,2.5,2.5,62,0.00,,,0.01,WUHU216HW,2013-07-08 18:13:00,
2013-07-08 14:18:00,94.0,78.5,30.24,WSW,248,3.1,3.1,61,0.00,,,0.01,WUHU216HW,2013-07-08 18:18:00,
2013-07-08 14:23:00,94.3,78.4,30.24,SSE,158,3.4,5.8,60,0.00,,,0.01,WUHU216HW,2013-07-08 18:23:00,
2013-07-08 14:29:00,94.0,77.5,30.24,South,180,4.3,5.8,59,0.00,,,0.01,WUHU216HW,2013-07-08 18:29:00,
2013-07-08 14:34:00,93.4,76.4,30.24,South,176,2.2,4.3,58,0.00,,,0.01,WUHU216HW,2013-07-08 18:34:00,
2013-07-08 14:39:00,91.8,74.9,30.24,East,90,0.0,4.3,58,0.00,,,0.01,WUHU216HW,2013-07-08 18:39:00,
2013-07-08 14:44:00,90.7,75.4,30.24,NNE,23,1.8,1.8,61,0.00,,,0.01,WUHU216HW,2013-07-08 18:44:00,
2013-07-08 14:49:00,89.6,74.4,30.24,ESE,113,1.8,1.8,61,0.00,,,0.01,WUHU216HW,2013-07-08 18:49:00,
2013-07-08 14:54:00,88.2,74.1,30.24,North,0,1.1,1.8,63,0.00,,,0.01,WUHU216HW,2013-07-08 18:54:00,
2013-07-08 14:59:00,87.1,73.9,30.23,NE,45,1.1,1.8,65,0.00,,,0.01,WUHU216HW,2013-07-08 18:59:00,
2013-07-08 15:05:00,85.3,73.2,30.23,ENE,68,2.3,2.5,67,0.00,,,0.01,WUHU216HW,2013-07-08 19:05:00,
2013-07-08 15:11:00,84.6,72.5,30.23,NNE,23,1.1,2.5,67,0.00,,,0.01,WUHU216HW,2013-07-08 19:11:00,
2013-07-08 15:17:00,83.9,72.2,30.23,SE,135,0.7,1.3,68,0.00,,,0.01,WUHU216HW,2013-07-08 19:17:00,
2013-07-08 15:22:00,82.3,72.3,30.23,ENE,68,2.5,2.5,72,0.00,,,0.01,WUHU216HW,2013-07-08 19:22:00,
2013-07-08 15:28:00,81.4,71.5,30.23,East,82,1.8,2.5,72,0.00,,,0.01,WUHU216HW,2013-07-08 19:28:00,
2013-07-08 15:33:00,81.0,70.7,30.23,East,90,1.8,2.5,71,0.00,,,0.01,WUHU216HW,2013-07-08 19:33:00,
2013-07-08 15:38:00,81.0,71.1,30.22,SE,135,0.9,1.8,72,0.00,,,0.01,WUHU216HW,2013-07-08 19:38:00,
2013-07-08 15:43:00,81.2,71.3,30.22,SSE,158,1.3,1.8,72,0.00,,,0.01,WUHU216HW,2013-07-08 19:43:00,
2013-07-08 15:48:00,81.5,71.6,30.22,South,180,3.1,3.1,72,0.00,,,0.01,WUHU216HW,2013-07-08 19:48:00,
2013-07-08 15:53:00,82.8,73.3,30.21,SSE,158,2.1,3.1,73,0.00,,,0.01,WUHU216HW,2013-07-08 19:53:00,
2013-07-08 15:59:00,83.5,73.9,30.21,NE,45,0.7,3.1,73,0.00,,,0.01,WUHU216HW,2013-07-08 19:59:00,
2013-07-08 16:04:00,84.2,74.3,30.21,SSW,203,1.6,1.6,72,0.00,,,0.01,WUHU216HW,2013-07-08 20:04:00,
2013-07-08 16:09:00,84.6,74.6,30.21,SSE,158,1.1,1.6,72,0.00,,,0.01,WUHU216HW,2013-07-08 20:09:00,
2013-07-08 16:14:00,85.0,74.5,30.21,SSE,158,2.9,2.9,71,0.00,,,0.01,WUHU216HW,2013-07-08 20:14:00,
2013-07-08 16:19:00,85.3,74.9,30.21,SSE,164,2.6,2.9,71,0.00,,,0.01,WUHU216HW,2013-07-08 20:19:00,
2013-07-08 16:24:00,85.5,74.7,30.21,East,90,1.1,2.9,70,0.00,,,0.01,WUHU216HW,2013-07-08 20:24:00,
2013-07-08 16:29:00,85.5,74.7,30.21,SSE,158,1.1,2.0,70,0.00,,,0.01,WUHU216HW,2013-07-08 20:29:00,
2013-07-08 16:34:00,85.5,74.3,30.20,ESE,113,1.1,1.1,69,0.00,,,0.01,WUHU216HW,2013-07-08 20:34:00,
2013-07-08 16:40:00,85.9,75.1,30.21,South,180,2.5,2.5,70,0.00,,,0.01,WUHU216HW,2013-07-08 20:40:00,
2013-07-08 16:46:00,86.8,75.9,30.20,SE,135,1.8,2.5,70,0.00,,,0.01,WUHU216HW,2013-07-08 20:46:00,
2013-07-08 16:51:00,87.7,76.2,30.20,SSW,203,2.0,2.5,69,0.00,,,0.01,WUHU216HW,2013-07-08 20:51:00,
2013-07-08 16:57:00,89.1,77.2,30.20,South,180,3.1,3.1,68,0.00,,,0.01,WUHU216HW,2013-07-08 20:57:00,
2013-07-08 17:02:00,90.5,77.6,30.20,South,180,3.0,3.6,66,0.00,,,0.01,WUHU216HW,2013-07-08 21:02:00,
2013-07-08 17:07:00,90.9,77.5,30.19,NNE,23,1.1,3.6,65,0.00,,,0.01,WUHU216HW,2013-07-08 21:07:00,
2013-07-08 17:12:00,91.1,77.1,30.19,SE,135,3.4,3.4,64,0.00,,,0.01,WUHU216HW,2013-07-08 21:12:00,
2013-07-08 17:17:00,91.6,77.2,30.19,SE,135,2.0,3.4,63,0.00,,,0.01,WUHU216HW,2013-07-08 21:17:00,
2013-07-08 17:22:00,91.4,77.1,30.19,SSE,158,2.7,2.7,63,0.00,,,0.01,WUHU216HW,2013-07-08 21:22:00,
2013-07-08 17:28:00,90.7,75.4,30.19,SE,135,0.9,2.7,61,0.00,,,0.01,WUHU216HW,2013-07-08 21:28:00,
2013-07-08 17:33:00,90.0,74.4,30.19,South,173,2.4,2.7,60,0.00,,,0.01,WUHU216HW,2013-07-08 21:33:00,
2013-07-08 17:38:00,89.3,74.6,30.19,SE,135,3.4,3.4,62,0.00,,,0.01,WUHU216HW,2013-07-08 21:38:00,
2013-07-08 17:43:00,89.5,75.3,30.19,South,180,2.5,3.4,63,0.00,,,0.01,WUHU216HW,2013-07-08 21:43:00,
2013-07-08 17:49:00,89.6,75.4,30.19,South,180,3.4,3.4,63,0.00,,,0.01,WUHU216HW,2013-07-08 21:49:00,
2013-07-08 17:54:00,89.6,75.4,30.19,SSE,158,3.8,3.8,63,0.00,,,0.01,WUHU216HW,2013-07-08 21:54:00,
2013-07-08 17:59:00,89.3,75.1,30.19,South,180,3.3,5.6,63,0.00,,,0.01,WUHU216HW,2013-07-08 21:59:00,
2013-07-08 18:04:00,88.9,74.7,30.20,South,180,5.4,5.6,63,0.00,,,0.01,WUHU216HW,2013-07-08 22:04:00,
2013-07-08 18:10:00,88.7,75.0,30.19,SSE,158,2.9,5.4,64,0.00,,,0.01,WUHU216HW,2013-07-08 22:10:00,
2013-07-08 18:15:00,88.7,75.0,30.20,South,180,3.4,5.4,64,0.00,,,0.01,WUHU216HW,2013-07-08 22:15:00,
2013-07-08 18:20:00,88.6,74.9,30.19,SSW,203,2.5,3.4,64,0.00,,,0.01,WUHU216HW,2013-07-08 22:20:00,
2013-07-08 18:25:00,88.0,74.8,30.19,SE,133,1.7,3.4,65,0.00,,,0.01,WUHU216HW,2013-07-08 22:25:00,
2013-07-08 18:31:00,88.0,74.8,30.18,SE,135,0.9,2.5,65,0.00,,,0.01,WUHU216HW,2013-07-08 22:31:00,
2013-07-08 18:36:00,87.8,74.2,30.19,East,90,2.2,2.2,64,0.00,,,0.01,WUHU216HW,2013-07-08 22:36:00,
2013-07-08 18:41:00,87.7,74.9,30.19,SSE,158,4.0,4.0,66,0.00,,,0.01,WUHU216HW,2013-07-08 22:41:00,
2013-07-08 18:46:00,88.4,75.6,30.19,South,180,2.5,4.0,66,0.00,,,0.01,WUHU216HW,2013-07-08 22:46:00,
2013-07-08 18:51:00,88.9,75.6,30.19,South,180,3.6,3.6,65,0.00,,,0.01,WUHU216HW,2013-07-08 22:51:00,
2013-07-08 18:57:00,89.1,75.8,30.19,South,170,3.5,3.6,65,0.00,,,0.01,WUHU216HW,2013-07-08 22:57:00,
2013-07-08 19:03:00,88.7,75.0,30.19,SSE,158,3.4,3.6,64,0.00,,,0.01,WUHU216HW,2013-07-08 23:03:00,
2013-07-08 19:09:00,87.3,74.1,30.19,SSW,203,1.8,3.4,65,0.00,,,0.01,WUHU216HW,2013-07-08 23:09:00,
2013-07-08 19:14:00,86.8,74.1,30.19,SSE,158,3.8,3.8,66,0.00,,,0.01,WUHU216HW,2013-07-08 23:14:00,
2013-07-08 19:20:00,86.6,73.9,30.19,South,175,1.4,3.8,66,0.00,,,0.01,WUHU216HW,2013-07-08 23:20:00,
2013-07-08 19:25:00,86.2,74.0,30.18,South,180,1.1,1.8,67,0.00,,,0.01,WUHU216HW,2013-07-08 23:25:00,
2013-07-08 19:30:00,85.7,73.5,30.19,SSE,158,1.3,1.3,67,0.00,,,0.01,WUHU216HW,2013-07-08 23:30:00,
2013-07-08 19:35:00,84.6,72.9,30.19,South,180,0.0,1.3,68,0.00,,,0.01,WUHU216HW,2013-07-08 23:35:00,
2013-07-08 19:40:00,83.7,72.5,30.19,South,180,0.0,1.3,69,0.00,,,0.01,WUHU216HW,2013-07-08 23:40:00,
2013-07-08 19:46:00,83.2,72.4,30.20,South,180,0.0,0.0,70,0.00,,,0.01,WUHU216HW,2013-07-08 23:46:00,
2013-07-08 19:51:00,82.8,72.5,30.20,South,180,0.0,0.0,71,0.00,,,0.01,WUHU216HW,2013-07-08 23:51:00,
2013-07-08 19:56:00,82.1,72.2,30.20,ESE,113,0.0,0.0,72,0.00,,,0.01,WUHU216HW,2013-07-08 23:56:00,
2013-07-08 20:01:00,81.9,71.6,30.20,SSE,158,0.4,0.4,71,0.00,,,0.01,WUHU216HW,2013-07-09 00:01:00,
2013-07-08 20:06:00,81.7,72.2,30.20,South,180,1.1,1.1,73,0.00,,,0.01,WUHU216HW,2013-07-09 00:06:00,
2013-07-08 20:12:00,81.4,72.3,30.20,SSW,203,0.0,1.1,74,0.00,,,0.01,WUHU216HW,2013-07-09 00:12:00,
2013-07-08 20:17:00,81.0,71.9,30.20,SW,225,0.0,1.1,74,0.00,,,0.01,WUHU216HW,2013-07-09 00:17:00,
2013-07-08 20:22:00,80.8,71.7,30.20,WSW,248,0.0,0.0,74,0.00,,,0.01,WUHU216HW,2013-07-09 00:22:00,
2013-07-08 20:27:00,80.5,71.8,30.21,WNW,293,1.1,1.1,75,0.00,,,0.01,WUHU216HW,2013-07-09 00:27:00,
2013-07-08 20:32:00,80.3,71.6,30.21,WSW,248,1.8,1.8,75,0.00,,,0.01,WUHU216HW,2013-07-09 00:32:00,
2013-07-08 20:37:00,80.1,71.5,30.21,WSW,248,2.2,2.2,75,0.00,,,0.01,WUHU216HW,2013-07-09 00:37:00,
2013-07-08 20:42:00,79.9,71.3,30.21,WSW,248,2.0,2.2,75,0.00,,,0.01,WUHU216HW,2013-07-09 00:42:00,
2013-07-08 20:47:00,79.6,71.3,30.21,West,270,1.1,2.2,76,0.00,,,0.01,WUHU216HW,2013-07-09 00:47:00,
2013-07-08 20:52:00,79.2,71.7,30.21,West,270,4.0,4.0,78,0.00,,,0.01,WUHU216HW,2013-07-09 00:52:00,
2013-07-08 20:57:00,79.0,71.6,30.21,West,270,3.9,4.0,78,0.00,,,0.01,WUHU216HW,2013-07-09 00:57:00,
2013-07-08 21:03:00,78.8,71.4,30.21,West,270,3.4,4.0,78,0.00,,,0.01,WUHU216HW,2013-07-09 01:03:00,
2013-07-08 21:08:00,78.7,71.2,30.21,WNW,293,1.1,3.8,78,0.00,,,0.01,WUHU216HW,2013-07-09 01:08:00,
2013-07-08 21:13:00,78.5,71.0,30.21,NNW,338,0.4,3.4,78,0.00,,,0.01,WUHU216HW,2013-07-09 01:13:00,
2013-07-08 21:19:00,78.3,70.8,30.22,SW,225,2.5,2.5,78,0.00,,,0.01,WUHU216HW,2013-07-09 01:19:00,
2013-07-08 21:24:00,77.8,70.8,30.22,WSW,246,3.4,5.4,79,0.00,,,0.01,WUHU216HW,2013-07-09 01:24:00,
2013-07-08 21:29:00,77.6,70.1,30.21,SSW,209,2.4,5.4,78,0.00,,,0.01,WUHU216HW,2013-07-09 01:29:00,
2013-07-08 21:34:00,77.4,70.0,30.22,WSW,248,1.8,2.9,78,0.00,,,0.01,WUHU216HW,2013-07-09 01:34:00,
2013-07-08 21:39:00,77.4,70.0,30.22,WSW,248,1.3,2.9,78,0.00,,,0.01,WUHU216HW,2013-07-09 01:39:00,
2013-07-08 21:45:00,77.0,70.0,30.23,NW,325,0.9,1.8,79,0.00,,,0.01,WUHU216HW,2013-07-09 01:45:00,
2013-07-08 21:50:00,77.0,70.0,30.23,West,270,0.4,1.3,79,0.00,,,0.01,WUHU216HW,2013-07-09 01:50:00,
2013-07-08 21:56:00,76.9,69.9,30.23,NW,315,0.0,0.4,79,0.00,,,0.01,WUHU216HW,2013-07-09 01:56:00,
2013-07-08 22:01:00,76.7,69.7,30.23,WSW,248,2.2,2.2,79,0.00,,,0.01,WUHU216HW,2013-07-09 02:01:00,
2013-07-08 22:06:00,76.5,69.5,30.24,NW,307,1.2,2.2,79,0.00,,,0.01,WUHU216HW,2013-07-09 02:06:00,
2013-07-08 22:11:00,76.3,69.8,30.24,NW,315,1.1,2.2,80,0.00,,,0.01,WUHU216HW,2013-07-09 02:11:00,
2013-07-08 22:16:00,76.3,69.8,30.25,West,272,1.6,1.8,80,0.00,,,0.01,WUHU216HW,2013-07-09 02:16:00,
2013-07-08 22:22:00,76.1,69.6,30.26,NNW,338,0.7,1.8,80,0.00,,,0.01,WUHU216HW,2013-07-09 02:22:00,
2013-07-08 22:27:00,76.1,69.6,30.26,NNE,23,0.4,0.7,80,0.00,,,0.01,WUHU216HW,2013-07-09 02:27:00,
2013-07-08 22:32:00,76.0,69.4,30.26,NE,45,0.7,0.9,80,0.00,,,0.01,WUHU216HW,2013-07-09 02:32:00,
2013-07-08 22:37:00,75.8,69.2,30.25,NNW,338,0.7,0.9,80,0.00,,,0.01,WUHU216HW,2013-07-09 02:37:00,
2013-07-08 22:43:00,75.6,69.1,30.25,NNW,338,0.4,0.7,80,0.00,,,0.01,WUHU216HW,2013-07-09 02:43:00,
2013-07-08 22:48:00,75.6,69.4,30.25,NE,45,0.0,0.7,81,0.00,,,0.01,WUHU216HW,2013-07-09 02:48:00,
2013-07-08 22:53:00,75.4,69.3,30.25,WSW,248,0.0,0.4,81,0.00,,,0.01,WUHU216HW,2013-07-09 02:53:00,
2013-07-08 22:58:00,75.2,69.1,30.25,South,180,0.7,0.7,81,0.00,,,0.01,WUHU216HW,2013-07-09 02:58:00,
2013-07-08 23:04:00,75.2,69.1,30.25,South,180,0.0,0.7,81,0.00,,,0.01,WUHU216HW,2013-07-09 03:04:00,
2013-07-08 23:09:00,74.9,68.8,30.25,North,0,0.4,0.7,81,0.00,,,0.01,WUHU216HW,2013-07-09 03:09:00,
2013-07-08 23:14:00,74.9,68.8,30.25,North,0,0.4,0.4,81,0.00,,,0.01,WUHU216HW,2013-07-09 03:14:00,
2013-07-08 23:19:00,74.7,69.0,30.25,SE,135,0.0,0.4,82,0.00,,,0.01,WUHU216HW,2013-07-09 03:19:00,
2013-07-08 23:24:00,74.7,69.0,30.25,South,180,0.0,0.0,82,0.00,,,0.01,WUHU216HW,2013-07-09 03:24:00,
2013-07-08 23:29:00,74.5,68.8,30.24,SSE,158,0.0,0.0,82,0.00,,,0.01,WUHU216HW,2013-07-09 03:29:00,
2013-07-08 23:34:00,74.5,69.0,30.24,SSE,158,0.0,0.0,83,0.00,,,0.01,WUHU216HW,2013-07-09 03:34:00,
2013-07-08 23:39:00,74.3,69.2,30.24,SE,135,0.0,0.0,84,0.00,,,0.01,WUHU216HW,2013-07-09 03:39:00,
2013-07-08 23:44:00,74.0,69.2,30.24,NNE,23,0.0,0.0,85,0.00,,,0.01,WUHU216HW,2013-07-09 03:44:00,
2013-07-08 23:49:00,73.6,68.9,30.25,NNE,23,0.0,0.0,85,0.00,,,0.01,WUHU216HW,2013-07-09 03:49:00,
2013-07-08 23:55:00,73.4,68.7,30.25,NE,45,0.0,0.0,85,0.00,,,0.01,WUHU216HW,2013-07-09 03:55:00,